,,Stat6,,Stat2,,Stat8,,Stat9,,Stat10,,Wind1,,Wind1,
time,status,PA1M_AVG,status,PR1M_SUM,status,RH1M_AVG,status,SR1M_AVG,status,TA1M_AVG,status,W1dAve1m,status,W1sAve1m,
2005-10-03, 00:00:00,VALID,918.926,VALID,0,VALID,100,VALID,-0.0169808,VALID,19.464,VALID,356,VALID,0.865663,
2005-10-03, 00:01:00,VALID,918.9,VALID,0,VALID,100,VALID,-0.0169808,VALID,19.4799,VALID,10,VALID,0.62965,
2005-10-03, 00:02:00,VALID,918.863,VALID,0,VALID,100,VALID,0,VALID,19.4769,VALID,11,VALID,0.329613,
2005-10-03, 00:03:00,VALID,918.863,VALID,0,VALID,100,VALID,-0.0169808,VALID,19.4603,VALID,354,VALID,0.540153,
2005-10-03, 00:04:00,VALID,918.844,VALID,0,VALID,100,VALID,0,VALID,19.4769,VALID,260,VALID,0.299609,
2005-10-03, 00:05:00,VALID,918.848,VALID,0,VALID,100,VALID,-0.0509425,VALID,19.4702,VALID,287,VALID,0.772135,
2005-10-03, 00:06:00,VALID,918.832,VALID,0,VALID,100,VALID,-0.0509425,VALID,19.5065,VALID,11,VALID,0.419588,
2005-10-03, 00:07:00,VALID,918.839,VALID,0,VALID,100,VALID,0,VALID,19.4901,VALID,4,VALID,0.244004,
2005-10-03, 00:08:00,VALID,918.838,VALID,0,VALID,100,VALID,0,VALID,19.5028,VALID,4,VALID,0.0984003,
2005-10-03, 00:09:00,VALID,918.823,VALID,0,VALID,100,VALID,0,VALID,19.5157,VALID,62,VALID,0.382635,
2005-10-03, 00:10:00,VALID,918.818,VALID,0,VALID,100,VALID,-0.0169808,VALID,19.506,VALID,20,VALID,0.652902,
2005-10-03, 00:11:00,VALID,918.799,VALID,0,VALID,100,VALID,0,VALID,19.5229,VALID,43,VALID,0.249273,
2005-10-03, 00:12:00,VALID,918.785,VALID,0,VALID,100,VALID,-0.0169808,VALID,19.5129,VALID,25,VALID,1.13707,
2005-10-03, 00:13:00,VALID,918.798,VALID,0,VALID,100,VALID,0,VALID,19.5254,VALID,13,VALID,0.329883,
2005-10-03, 00:14:00,VALID,918.812,VALID,0,VALID,100,VALID,0,VALID,19.5229,VALID,113,VALID,0.490057,
2005-10-03, 00:15:00,VALID,918.801,VALID,0,VALID,100,VALID,-0.0339617,VALID,19.4742,VALID,131,VALID,0.426314,
2005-10-03, 00:16:00,VALID,918.816,VALID,0,VALID,100,VALID,-0.0339617,VALID,19.458,VALID,34,VALID,0.680398,
2005-10-03, 00:17:00,VALID,918.823,VALID,0,VALID,100,VALID,-0.0169808,VALID,19.4744,VALID,40,VALID,0.517323,
2005-10-03, 00:18:00,VALID,918.822,VALID,0,VALID,100,VALID,-0.0339617,VALID,19.461,VALID,85,VALID,0.191315,
2005-10-03, 00:19:00,VALID,918.82,VALID,0,VALID,100,VALID,-0.0169808,VALID,19.4511,VALID,31,VALID,0.717076,
2005-10-03, 00:20:00,VALID,918.8,VALID,0,VALID,100,VALID,0,VALID,19.4645,VALID,54,VALID,0.594113,
2005-10-03, 00:21:00,VALID,918.778,VALID,0,VALID,100,VALID,-0.0339617,VALID,19.4576,VALID,20,VALID,1.15781,
2005-10-03, 00:22:00,VALID,918.791,VALID,0,VALID,100,VALID,-0.0509425,VALID,19.4481,VALID,280,VALID,1.05508,
2005-10-03, 00:23:00,VALID,918.79,VALID,0,VALID,100,VALID,-0.0169808,VALID,19.4061,VALID,138,VALID,0.308984,
2005-10-03, 00:24:00,VALID,918.786,VALID,0,VALID,100,VALID,-0.0169808,VALID,19.3997,VALID,61,VALID,0.448219,
2005-10-03, 00:25:00,VALID,918.785,VALID,0,VALID,100,VALID,-0.0339617,VALID,19.3935,VALID,95,VALID,0.741678,
2005-10-03, 00:26:00,VALID,918.793,VALID,0.2,VALID,100,VALID,-0.0169808,VALID,19.3706,VALID,5,VALID,1.03249,
2005-10-03, 00:27:00,VALID,918.811,VALID,0,VALID,100,VALID,0,VALID,19.3545,VALID,221,VALID,0.914063,
2005-10-03, 00:28:00,VALID,918.796,VALID,0,VALID,100,VALID,-0.0169808,VALID,19.3254,VALID,281,VALID,0.56901,
2005-10-03, 00:29:00,VALID,918.801,VALID,0,VALID,100,VALID,-0.0509425,VALID,19.3286,VALID,64,VALID,0.416109,
2005-10-03, 00:30:00,VALID,918.792,VALID,0,VALID,100,VALID,-0.0169808,VALID,19.3319,VALID,39,VALID,0.674964,
2005-10-03, 00:31:00,VALID,918.785,VALID,0,VALID,100,VALID,0,VALID,19.2804,VALID,324,VALID,1.31055,
2005-10-03, 00:32:00,VALID,918.76,VALID,0,VALID,100,VALID,0,VALID,19.2735,VALID,17,VALID,0.695858,
2005-10-03, 00:33:00,VALID,918.752,VALID,0.2,VALID,100,VALID,-0.0339617,VALID,19.31,VALID,95,VALID,0.513263,
2005-10-03, 00:34:00,VALID,918.749,VALID,0,VALID,100,VALID,-0.0169808,VALID,19.2901,VALID,22,VALID,1.06008,
2005-10-03, 00:35:00,VALID,918.698,VALID,0,VALID,100,VALID,0,VALID,19.2767,VALID,330,VALID,1.54874,
2005-10-03, 00:36:00,VALID,918.711,VALID,0,VALID,100,VALID,0,VALID,19.2281,VALID,282,VALID,1.50284,
2005-10-03, 00:37:00,VALID,918.712,VALID,0,VALID,100,VALID,0,VALID,19.2124,VALID,319,VALID,1.05812,
2005-10-03, 00:38:00,VALID,918.669,VALID,0,VALID,100,VALID,-0.0509425,VALID,19.2253,VALID,24,VALID,1.63965,
2005-10-03, 00:39:00,VALID,918.677,VALID,0,VALID,100,VALID,-0.0169808,VALID,19.2447,VALID,52,VALID,0.984193,
2005-10-03, 00:40:00,VALID,918.686,VALID,0,VALID,100,VALID,-0.0169808,VALID,19.2385,VALID,175,VALID,0.87138,
2005-10-03, 00:41:00,VALID,918.682,VALID,0,VALID,100,VALID,-0.0169808,VALID,19.2288,VALID,43,VALID,0.463368,
2005-10-03, 00:42:00,VALID,918.67,VALID,0,VALID,100,VALID,-0.0509425,VALID,19.2097,VALID,357,VALID,1.06321,
2005-10-03, 00:43:00,VALID,918.671,VALID,0,VALID,100,VALID,-0.0339617,VALID,19.2159,VALID,27,VALID,1.0904,
2005-10-03, 00:44:00,VALID,918.695,VALID,0,VALID,100,VALID,0,VALID,19.2293,VALID,113,VALID,0.447674,
2005-10-03, 00:45:00,VALID,918.66,VALID,0,VALID,100,VALID,0,VALID,19.2417,VALID,38,VALID,0.255632,
2005-10-03, 00:46:00,VALID,918.653,VALID,0,VALID,100,VALID,-0.0169808,VALID,19.2159,VALID,318,VALID,1.16927,
2005-10-03, 00:47:00,VALID,918.622,VALID,0,VALID,100,VALID,-0.0509425,VALID,19.2037,VALID,25,VALID,0.526526,
2005-10-03, 00:48:00,VALID,918.598,VALID,0,VALID,100,VALID,0,VALID,19.2064,VALID,7,VALID,0.612282,
2005-10-03, 00:49:00,VALID,918.583,VALID,0,VALID,100,VALID,-0.0849042,VALID,19.2263,VALID,14,VALID,0.863376,
2005-10-03, 00:50:00,VALID,918.561,VALID,0,VALID,100,VALID,-0.0679233,VALID,19.2295,VALID,19,VALID,0.606468,
2005-10-03, 00:51:00,VALID,918.538,VALID,0,VALID,100,VALID,-0.0169808,VALID,19.2129,VALID,27,VALID,0.704215,
2005-10-03, 00:52:00,VALID,918.534,VALID,0,VALID,100,VALID,-0.0849042,VALID,19.229,VALID,35,VALID,0.932165,
2005-10-03, 00:53:00,VALID,918.502,VALID,0,VALID,100,VALID,-0.0509425,VALID,19.2454,VALID,29,VALID,0.973837,
2005-10-03, 00:54:00,VALID,918.494,VALID,0,VALID,100,VALID,-0.0169808,VALID,19.2549,VALID,21,VALID,1.08012,
2005-10-03, 00:55:00,VALID,918.501,VALID,0,VALID,100,VALID,0,VALID,19.2648,VALID,349,VALID,1.04992,
2005-10-03, 00:56:00,VALID,918.491,VALID,0,VALID,100,VALID,-0.0509425,VALID,19.2521,VALID,267,VALID,0.372713,
2005-10-03, 00:57:00,VALID,918.488,VALID,0,VALID,100,VALID,-0.0509425,VALID,19.2131,VALID,244,VALID,0.275568,
2005-10-03, 00:58:00,VALID,918.457,VALID,0,VALID,100,VALID,-0.0169808,VALID,19.226,VALID,307,VALID,0.358984,
2005-10-03, 00:59:00,VALID,918.492,VALID,0.2,VALID,100,VALID,-0.0339617,VALID,19.2454,VALID,15,VALID,0.490885,
2005-10-03, 01:00:00,VALID,918.445,VALID,0.2,VALID,100,VALID,-0.0679233,VALID,19.262,VALID,2,VALID,0.84282,
2005-10-03, 01:01:00,VALID,918.437,VALID,0,VALID,100,VALID,-0.0679233,VALID,19.2457,VALID,97,VALID,1.81027,
2005-10-03, 01:02:00,VALID,918.432,VALID,0,VALID,100,VALID,-0.0679233,VALID,19.2332,VALID,227,VALID,1.79492,
2005-10-03, 01:03:00,VALID,918.438,VALID,0.2,VALID,100,VALID,-0.0849042,VALID,19.2362,VALID,240,VALID,1.35078,
2005-10-03, 01:04:00,VALID,918.428,VALID,0,VALID,100,VALID,-0.0679233,VALID,19.2528,VALID,263,VALID,1.24655,
2005-10-03, 01:05:00,VALID,918.419,VALID,0,VALID,100,VALID,-0.0509425,VALID,19.2521,VALID,352,VALID,1.63246,
2005-10-03, 01:06:00,VALID,918.422,VALID,0,VALID,100,VALID,-0.0169808,VALID,19.2454,VALID,278,VALID,2.73496,
2005-10-03, 01:07:00,VALID,918.413,VALID,0.2,VALID,100,VALID,-0.0679233,VALID,19.226,VALID,283,VALID,2.00728,
2005-10-03, 01:08:00,VALID,918.392,VALID,0,VALID,100,VALID,-0.101885,VALID,19.2044,VALID,313,VALID,2.01848,
2005-10-03, 01:09:00,VALID,918.385,VALID,0,VALID,100,VALID,-0.0849042,VALID,19.2138,VALID,35,VALID,1.86275,
2005-10-03, 01:10:00,VALID,918.38,VALID,0,VALID,100,VALID,-0.0849042,VALID,19.2069,VALID,70,VALID,1.7221,
2005-10-03, 01:11:00,VALID,918.368,VALID,0,VALID,100,VALID,-0.0679233,VALID,19.2104,VALID,18,VALID,1.72552,
2005-10-03, 01:12:00,VALID,918.406,VALID,0,VALID,100,VALID,-0.0849042,VALID,19.2007,VALID,12,VALID,0.387355,
2005-10-03, 01:13:00,VALID,918.39,VALID,0,VALID,100,VALID,-0.101885,VALID,19.1878,VALID,65,VALID,0.818407,
2005-10-03, 01:14:00,VALID,918.378,VALID,0,VALID,100,VALID,-0.0509425,VALID,19.1615,VALID,76,VALID,1.34189,
2005-10-03, 01:15:00,VALID,918.388,VALID,0,VALID,100,VALID,-0.0339617,VALID,19.1391,VALID,65,VALID,0.513393,
2005-10-03, 01:16:00,VALID,918.387,VALID,0,VALID,100,VALID,-0.0509425,VALID,19.1329,VALID,20,VALID,0.939986,
2005-10-03, 01:17:00,VALID,918.385,VALID,0,VALID,100,VALID,-0.0849042,VALID,19.1334,VALID,325,VALID,1.53125,
2005-10-03, 01:18:00,VALID,918.408,VALID,0,VALID,100,VALID,-0.0509425,VALID,19.0688,VALID,322,VALID,1.20472,
2005-10-03, 01:19:00,VALID,918.408,VALID,0,VALID,100,VALID,-0.0679233,VALID,19.042,VALID,20,VALID,0.617369,
2005-10-03, 01:20:00,VALID,918.396,VALID,0.2,VALID,100,VALID,-0.101885,VALID,19.0492,VALID,72,VALID,0.816406,
2005-10-03, 01:21:00,VALID,918.376,VALID,0,VALID,100,VALID,-0.0509425,VALID,18.997,VALID,247,VALID,1.58848,
2005-10-03, 01:22:00,VALID,918.367,VALID,0,VALID,100,VALID,-0.0679233,VALID,18.9749,VALID,3,VALID,2.20846,
2005-10-03, 01:23:00,VALID,918.431,VALID,0,VALID,100,VALID,-0.0509425,VALID,18.994,VALID,68,VALID,0.796484,
2005-10-03, 01:24:00,VALID,918.365,VALID,0,VALID,100,VALID,-0.101885,VALID,18.9299,VALID,266,VALID,1.90309,
2005-10-03, 01:25:00,VALID,918.389,VALID,0,VALID,100,VALID,-0.0509425,VALID,18.917,VALID,19,VALID,1.65116,
2005-10-03, 01:26:00,VALID,918.408,VALID,0,VALID,100,VALID,-0.0509425,VALID,18.9202,VALID,218,VALID,1.14698,
2005-10-03, 01:27:00,VALID,918.39,VALID,0,VALID,100,VALID,-0.101885,VALID,18.8942,VALID,235,VALID,1.66276,
2005-10-03, 01:28:00,VALID,918.416,VALID,0,VALID,100,VALID,-0.0849042,VALID,18.8875,VALID,295,VALID,1.11551,
2005-10-03, 01:29:00,VALID,918.385,VALID,0,VALID,100,VALID,-0.0849042,VALID,18.9078,VALID,36,VALID,1.1109,
2005-10-03, 01:30:00,VALID,918.375,VALID,0,VALID,100,VALID,-0.0849042,VALID,18.9039,VALID,27,VALID,1.53571,
2005-10-03, 01:31:00,VALID,918.401,VALID,0,VALID,100,VALID,-0.0339617,VALID,18.9041,VALID,11,VALID,1.48402,
2005-10-03, 01:32:00,VALID,918.423,VALID,0,VALID,100,VALID,0.0169808,VALID,18.8928,VALID,186,VALID,0.610742,
2005-10-03, 01:33:00,VALID,918.366,VALID,0,VALID,100,VALID,0.0679233,VALID,18.8731,VALID,188,VALID,0.87551,
2005-10-03, 01:34:00,VALID,918.363,VALID,0,VALID,100,VALID,0.0339617,VALID,18.8538,VALID,131,VALID,0.702943,
2005-10-03, 01:35:00,VALID,918.374,VALID,0,VALID,100,VALID,0.0339617,VALID,18.8838,VALID,11,VALID,0.632422,
2005-10-03, 01:36:00,VALID,918.322,VALID,0,VALID,100,VALID,0,VALID,18.8828,VALID,319,VALID,0.882102,
2005-10-03, 01:37:00,VALID,918.31,VALID,0,VALID,100,VALID,0.0169808,VALID,18.8669,VALID,134,VALID,0.396129,
2005-10-03, 01:38:00,VALID,918.303,VALID,0,VALID,100,VALID,0.0339617,VALID,18.8542,VALID,121,VALID,0.661458,
2005-10-03, 01:39:00,VALID,918.286,VALID,0,VALID,100,VALID,0.0339617,VALID,18.825,VALID,164,VALID,0.923549,
2005-10-03, 01:40:00,VALID,918.269,VALID,0,VALID,100,VALID,0.0169808,VALID,18.8349,VALID,21,VALID,2.00688,
2005-10-03, 01:41:00,VALID,918.281,VALID,0,VALID,100,VALID,0.0169808,VALID,18.8153,VALID,342,VALID,1.4266,
2005-10-03, 01:42:00,VALID,918.311,VALID,0,VALID,100,VALID,0,VALID,18.8093,VALID,168,VALID,0.701563,
2005-10-03, 01:43:00,VALID,918.299,VALID,0,VALID,100,VALID,0,VALID,18.7994,VALID,345,VALID,1.03739,
2005-10-03, 01:44:00,VALID,918.337,VALID,0,VALID,100,VALID,0,VALID,18.7768,VALID,244,VALID,1.35305,
2005-10-03, 01:45:00,VALID,918.285,VALID,0,VALID,100,VALID,0.0169808,VALID,18.7184,VALID,318,VALID,1.3218,
2005-10-03, 01:46:00,VALID,918.308,VALID,0,VALID,100,VALID,0.0169808,VALID,18.699,VALID,186,VALID,0.959549,
2005-10-03, 01:47:00,VALID,918.29,VALID,0,VALID,100,VALID,0,VALID,18.7027,VALID,28,VALID,1.473,
2005-10-03, 01:48:00,VALID,918.302,VALID,0,VALID,100,VALID,0.0169808,VALID,18.7159,VALID,105,VALID,0.776042,
2005-10-03, 01:49:00,VALID,918.291,VALID,0,VALID,100,VALID,0.0339617,VALID,18.7023,VALID,111,VALID,0.388477,
2005-10-03, 01:50:00,VALID,918.282,VALID,0,VALID,100,VALID,0.0169808,VALID,18.709,VALID,138,VALID,0.50436,
2005-10-03, 01:51:00,VALID,918.264,VALID,0,VALID,100,VALID,-0.0169808,VALID,18.7127,VALID,185,VALID,0.508721,
2005-10-03, 01:52:00,VALID,918.242,VALID,0,VALID,100,VALID,0,VALID,18.7025,VALID,300,VALID,1.07485,
2005-10-03, 01:53:00,VALID,918.259,VALID,0,VALID,100,VALID,0,VALID,18.6928,VALID,2,VALID,0.902253,
2005-10-03, 01:54:00,VALID,918.223,VALID,0,VALID,100,VALID,0.0339617,VALID,18.6695,VALID,336,VALID,1.81287,
2005-10-03, 01:55:00,VALID,918.19,VALID,0,VALID,100,VALID,0.0169808,VALID,18.6894,VALID,19,VALID,1.02883,
2005-10-03, 01:56:00,VALID,918.18,VALID,0,VALID,100,VALID,0.0339617,VALID,18.6965,VALID,23,VALID,1.35795,
2005-10-03, 01:57:00,VALID,918.193,VALID,0,VALID,100,VALID,0.0339617,VALID,18.6861,VALID,17,VALID,0.729288,
2005-10-03, 01:58:01,VALID,918.158,VALID,0,VALID,100,VALID,0.0169808,VALID,18.6769,VALID,21,VALID,0.76391,
2005-10-03, 01:59:00,VALID,918.162,VALID,0,VALID,100,VALID,0.0339617,VALID,18.67,VALID,18,VALID,2.00951,
2005-10-03, 02:00:00,VALID,918.149,VALID,0,VALID,100,VALID,0,VALID,18.6965,VALID,33,VALID,1.32138,
2005-10-03, 02:01:00,VALID,918.133,VALID,0,VALID,100,VALID,0,VALID,18.7,VALID,15,VALID,1.28144,
2005-10-03, 02:02:00,VALID,918.133,VALID,0,VALID,100,VALID,-0.101885,VALID,18.7076,VALID,338,VALID,0.757457,
2005-10-03, 02:03:00,VALID,918.108,VALID,0,VALID,100,VALID,-0.0679233,VALID,18.7009,VALID,4,VALID,1.03646,
2005-10-03, 02:04:00,VALID,918.098,VALID,0,VALID,100,VALID,-0.101885,VALID,18.7009,VALID,32,VALID,1.05469,
2005-10-03, 02:05:00,VALID,918.081,VALID,0,VALID,100,VALID,-0.101885,VALID,18.6848,VALID,344,VALID,0.964844,
2005-10-03, 02:06:00,VALID,918.059,VALID,0,VALID,100,VALID,-0.101885,VALID,18.652,VALID,29,VALID,1.65642,
2005-10-03, 02:07:00,VALID,918.039,VALID,0,VALID,100,VALID,-0.0849042,VALID,18.6488,VALID,26,VALID,1.91059,
2005-10-03, 02:08:01,VALID,918.022,VALID,0,VALID,100,VALID,-0.101885,VALID,18.6816,VALID,357,VALID,1.19271,
2005-10-03, 02:09:00,VALID,918.015,VALID,0,VALID,100,VALID,-0.0679233,VALID,18.692,VALID,19,VALID,1.48601,
2005-10-03, 02:10:00,VALID,917.979,VALID,0,VALID,100,VALID,-0.0679233,VALID,18.6878,VALID,26,VALID,1.73289,
2005-10-03, 02:11:01,VALID,917.959,VALID,0,VALID,100,VALID,-0.0849042,VALID,18.6813,VALID,18,VALID,1.61365,
2005-10-03, 02:12:00,VALID,917.944,VALID,0,VALID,100,VALID,-0.101885,VALID,18.6883,VALID,343,VALID,1.07167,
2005-10-03, 02:13:00,VALID,917.899,VALID,0,VALID,100,VALID,-0.0679233,VALID,18.6138,VALID,345,VALID,1.7138,
2005-10-03, 02:14:01,VALID,917.907,VALID,0,VALID,100,VALID,-0.101885,VALID,18.5879,VALID,18,VALID,1.13783,
2005-10-03, 02:15:01,VALID,917.901,VALID,0,VALID,100,VALID,-0.0679233,VALID,18.5879,VALID,19,VALID,1.87072,
2005-10-03, 02:16:00,VALID,917.913,VALID,0,VALID,100,VALID,-0.0849042,VALID,18.6008,VALID,15,VALID,1.2984,
2005-10-03, 02:17:01,VALID,917.91,VALID,0,VALID,100,VALID,0.0169808,VALID,18.5964,VALID,357,VALID,1.24162,
2005-10-03, 02:18:00,VALID,917.89,VALID,0.2,VALID,100,VALID,0,VALID,18.5642,VALID,350,VALID,1.16921,
2005-10-03, 02:19:00,VALID,917.887,VALID,0,VALID,100,VALID,0.0339617,VALID,18.5443,VALID,313,VALID,0.935764,
2005-10-03, 02:20:00,VALID,917.867,VALID,0,VALID,100,VALID,0.0169808,VALID,18.5512,VALID,9,VALID,0.909339,
2005-10-03, 02:21:00,VALID,917.857,VALID,0,VALID,100,VALID,0,VALID,18.5547,VALID,22,VALID,1.15461,
2005-10-03, 02:22:01,VALID,917.845,VALID,0,VALID,100,VALID,0.0339617,VALID,18.5967,VALID,17,VALID,1.2918,
2005-10-03, 02:23:01,VALID,917.841,VALID,0,VALID,100,VALID,0.0169808,VALID,18.6006,VALID,354,VALID,1.55915,
2005-10-03, 02:24:00,VALID,917.825,VALID,0,VALID,100,VALID,0,VALID,18.5575,VALID,356,VALID,1.14946,
2005-10-03, 02:25:00,VALID,917.822,VALID,0,VALID,100,VALID,0.0339617,VALID,18.5706,VALID,340,VALID,0.520419,
2005-10-03, 02:26:00,VALID,917.807,VALID,0,VALID,100,VALID,0.0169808,VALID,18.5704,VALID,7,VALID,0.858803,
2005-10-03, 02:27:00,VALID,917.791,VALID,0,VALID,100,VALID,0,VALID,18.5738,VALID,12,VALID,1.17912,
2005-10-03, 02:28:00,VALID,917.798,VALID,0,VALID,100,VALID,0,VALID,18.5542,VALID,346,VALID,0.464558,
2005-10-03, 02:29:00,VALID,917.781,VALID,0,VALID,100,VALID,0.0339617,VALID,18.5542,VALID,10,VALID,0.80814,
2005-10-03, 02:30:00,VALID,917.767,VALID,0,VALID,100,VALID,0,VALID,18.5644,VALID,348,VALID,1.25742,
2005-10-03, 02:31:00,VALID,917.768,VALID,0.2,VALID,100,VALID,0.0169808,VALID,18.5609,VALID,1,VALID,0.94375,
2005-10-03, 02:32:00,VALID,917.771,VALID,0,VALID,100,VALID,0.0169808,VALID,18.5838,VALID,359,VALID,1.13891,
2005-10-03, 02:33:01,VALID,917.745,VALID,0,VALID,100,VALID,0,VALID,18.5736,VALID,5,VALID,1.36261,
2005-10-03, 02:34:00,VALID,917.715,VALID,0,VALID,100,VALID,0.0169808,VALID,18.5609,VALID,18,VALID,1.36849,
2005-10-03, 02:35:00,VALID,917.729,VALID,0,VALID,100,VALID,0.0169808,VALID,18.5575,VALID,8,VALID,0.588021,
2005-10-03, 02:36:00,VALID,917.694,VALID,0,VALID,100,VALID,0.0169808,VALID,18.5734,VALID,19,VALID,1.23285,
2005-10-03, 02:37:00,VALID,917.695,VALID,0.2,VALID,100,VALID,0,VALID,18.5928,VALID,355,VALID,1.48347,
2005-10-03, 02:38:01,VALID,917.68,VALID,0,VALID,100,VALID,0.0339617,VALID,18.5672,VALID,8,VALID,1.08542,
2005-10-03, 02:39:00,VALID,917.653,VALID,0,VALID,100,VALID,0,VALID,18.5997,VALID,18,VALID,0.907493,
2005-10-03, 02:40:00,VALID,917.635,VALID,0,VALID,100,VALID,0,VALID,18.629,VALID,24,VALID,1.08949,
2005-10-03, 02:41:01,VALID,917.618,VALID,0,VALID,100,VALID,0.0169808,VALID,18.6449,VALID,26,VALID,1.04855,
2005-10-03, 02:42:00,VALID,917.616,VALID,0,VALID,100,VALID,0.0169808,VALID,18.6479,VALID,32,VALID,0.455903,
2005-10-03, 02:43:01,VALID,917.574,VALID,0,VALID,100,VALID,0.0169808,VALID,18.6416,VALID,55,VALID,0.116257,
2005-10-03, 02:44:00,VALID,917.567,VALID,0,VALID,100,VALID,0.0509425,VALID,18.6352,VALID,76,VALID,0.404474,
2005-10-03, 02:45:01,VALID,917.561,VALID,0.2,VALID,100,VALID,0,VALID,18.6421,VALID,68,VALID,0.345465,
2005-10-03, 02:46:00,VALID,917.536,VALID,0,VALID,100,VALID,0,VALID,18.6506,VALID,55,VALID,0.235102,
2005-10-03, 02:47:01,VALID,917.513,VALID,0,VALID,100,VALID,0,VALID,18.6705,VALID,71,VALID,0.363368,
2005-10-03, 02:48:01,VALID,917.484,VALID,0,VALID,100,VALID,0.0169808,VALID,18.6546,VALID,83,VALID,0.547763,
2005-10-03, 02:49:00,VALID,917.483,VALID,0,VALID,100,VALID,0.0339617,VALID,18.6255,VALID,18,VALID,0.736852,
2005-10-03, 02:50:00,VALID,917.473,VALID,0,VALID,100,VALID,0,VALID,18.622,VALID,52,VALID,0.525977,
2005-10-03, 02:51:01,VALID,917.487,VALID,0,VALID,100,VALID,0,VALID,18.5828,VALID,352,VALID,0.408249,
2005-10-03, 02:52:00,VALID,917.491,VALID,0,VALID,100,VALID,0,VALID,18.5709,VALID,323,VALID,0.359189,
2005-10-03, 02:53:00,VALID,917.461,VALID,0,VALID,100,VALID,0,VALID,18.5411,VALID,247,VALID,1.26544,
2005-10-03, 02:54:01,VALID,917.474,VALID,0,VALID,100,VALID,0,VALID,18.4966,VALID,272,VALID,0.687682,
2005-10-03, 02:55:00,VALID,917.483,VALID,0.2,VALID,100,VALID,0,VALID,18.4991,VALID,17,VALID,1.2609,
2005-10-03, 02:56:01,VALID,917.475,VALID,0,VALID,100,VALID,0,VALID,18.5254,VALID,30,VALID,0.853609,
2005-10-03, 02:57:00,VALID,917.457,VALID,0,VALID,100,VALID,0,VALID,18.522,VALID,321,VALID,0.644245,
2005-10-03, 02:58:00,VALID,917.459,VALID,0,VALID,100,VALID,0,VALID,18.5289,VALID,340,VALID,0.310069,
2005-10-03, 02:59:01,VALID,917.431,VALID,0,VALID,100,VALID,-0.0169808,VALID,18.5358,VALID,52,VALID,0.653764,
2005-10-03, 03:00:00,VALID,917.408,VALID,0,VALID,100,VALID,0,VALID,18.5453,VALID,344,VALID,1.30859,
2005-10-03, 03:01:00,VALID,917.411,VALID,0,VALID,100,VALID,0,VALID,18.5483,VALID,214,VALID,0.364099,
2005-10-03, 03:02:01,VALID,917.384,VALID,0,VALID,100,VALID,-0.0339617,VALID,18.545,VALID,153,VALID,0.490327,
2005-10-03, 03:03:00,VALID,917.357,VALID,0,VALID,100,VALID,-0.0169808,VALID,18.5287,VALID,21,VALID,1.7035,
2005-10-03, 03:04:01,VALID,917.358,VALID,0,VALID,100,VALID,0,VALID,18.5095,VALID,345,VALID,1.13507,
2005-10-03, 03:05:00,VALID,917.36,VALID,0,VALID,100,VALID,0,VALID,18.4544,VALID,268,VALID,0.896307,
2005-10-03, 03:06:00,VALID,917.36,VALID,0,VALID,100,VALID,-0.0169808,VALID,18.4189,VALID,360,VALID,0.943924,
2005-10-03, 03:07:00,VALID,917.336,VALID,0,VALID,100,VALID,-0.0169808,VALID,18.4224,VALID,16,VALID,1.07682,
2005-10-03, 03:08:01,VALID,917.337,VALID,0,VALID,100,VALID,0.0169808,VALID,18.429,VALID,358,VALID,0.341518,
2005-10-03, 03:09:00,VALID,917.331,VALID,0,VALID,100,VALID,0,VALID,18.4387,VALID,40,VALID,0.415206,
2005-10-03, 03:10:00,VALID,917.329,VALID,0,VALID,100,VALID,-0.0169808,VALID,18.4355,VALID,107,VALID,0.441311,
2005-10-03, 03:11:01,VALID,917.357,VALID,0,VALID,100,VALID,-0.0169808,VALID,18.4385,VALID,59,VALID,0.363021,
2005-10-03, 03:12:01,VALID,917.356,VALID,0,VALID,100,VALID,0,VALID,18.4325,VALID,34,VALID,0.974888,
2005-10-03, 03:13:00,VALID,917.372,VALID,0,VALID,100,VALID,0,VALID,18.4191,VALID,24,VALID,0.807776,
2005-10-03, 03:14:01,VALID,917.37,VALID,0,VALID,100,VALID,0,VALID,18.4394,VALID,22,VALID,0.878634,
2005-10-03, 03:15:00,VALID,917.416,VALID,0,VALID,100,VALID,-0.0169808,VALID,18.4387,VALID,261,VALID,0.292708,
2005-10-03, 03:16:01,VALID,917.415,VALID,0,VALID,100,VALID,-0.0169808,VALID,18.4161,VALID,116,VALID,0.595385,
2005-10-03, 03:17:00,VALID,917.421,VALID,0,VALID,100,VALID,-0.0169808,VALID,18.4094,VALID,24,VALID,1.29415,
2005-10-03, 03:18:00,VALID,917.434,VALID,0,VALID,100,VALID,0,VALID,18.4288,VALID,263,VALID,0.360828,
2005-10-03, 03:19:01,VALID,917.445,VALID,0,VALID,100,VALID,-0.0169808,VALID,18.4293,VALID,359,VALID,0.864648,
2005-10-03, 03:20:00,VALID,917.448,VALID,0,VALID,100,VALID,-0.0339617,VALID,18.4392,VALID,39,VALID,0.941016,
2005-10-03, 03:21:01,VALID,917.422,VALID,0,VALID,100,VALID,-0.0339617,VALID,18.4263,VALID,16,VALID,2.30771,
2005-10-03, 03:22:00,VALID,917.462,VALID,0,VALID,100,VALID,0,VALID,18.3742,VALID,8,VALID,2.31993,
2005-10-03, 03:23:00,VALID,917.472,VALID,0,VALID,100,VALID,-0.0169808,VALID,18.3938,VALID,29,VALID,1.54983,
2005-10-03, 03:24:00,VALID,917.469,VALID,0,VALID,100,VALID,-0.0339617,VALID,18.4293,VALID,20,VALID,1.62282,
2005-10-03, 03:25:00,VALID,917.494,VALID,0,VALID,100,VALID,0,VALID,18.4127,VALID,9,VALID,0.764101,
2005-10-03, 03:26:01,VALID,917.5,VALID,0,VALID,100,VALID,0,VALID,18.3931,VALID,310,VALID,0.254764,
2005-10-03, 03:27:00,VALID,917.487,VALID,0,VALID,100,VALID,0,VALID,18.3774,VALID,14,VALID,0.606357,
2005-10-03, 03:28:01,VALID,917.474,VALID,0,VALID,100,VALID,-0.0339617,VALID,18.3804,VALID,5,VALID,1.45676,
2005-10-03, 03:29:01,VALID,917.472,VALID,0,VALID,100,VALID,-0.0339617,VALID,18.3806,VALID,249,VALID,0.614901,
2005-10-03, 03:30:01,VALID,917.467,VALID,0,VALID,100,VALID,-0.0169808,VALID,18.3679,VALID,15,VALID,1.60625,
2005-10-03, 03:31:01,VALID,917.443,VALID,0,VALID,100,VALID,-0.0339617,VALID,18.3386,VALID,26,VALID,1.35714,
2005-10-03, 03:32:01,VALID,917.436,VALID,0,VALID,100,VALID,-0.0169808,VALID,18.3453,VALID,289,VALID,1.09876,
2005-10-03, 03:33:00,VALID,917.428,VALID,0.2,VALID,100,VALID,-0.0339617,VALID,18.3352,VALID,111,VALID,0.972842,
2005-10-03, 03:34:00,VALID,917.434,VALID,0,VALID,100,VALID,-0.0169808,VALID,18.3161,VALID,235,VALID,0.886161,
2005-10-03, 03:35:00,VALID,917.448,VALID,0,VALID,100,VALID,0,VALID,18.3029,VALID,328,VALID,0.553757,
2005-10-03, 03:36:01,VALID,917.425,VALID,0,VALID,100,VALID,-0.0169808,VALID,18.3061,VALID,351,VALID,1.27471,
2005-10-03, 03:37:01,VALID,917.438,VALID,0,VALID,100,VALID,-0.0169808,VALID,18.3165,VALID,15,VALID,0.953307,
2005-10-03, 03:38:01,VALID,917.423,VALID,0,VALID,100,VALID,-0.0679233,VALID,18.3227,VALID,321,VALID,1.27378,
2005-10-03, 03:39:00,VALID,917.433,VALID,0,VALID,100,VALID,-0.0169808,VALID,18.3361,VALID,18,VALID,1.00534,
2005-10-03, 03:40:01,VALID,917.45,VALID,0,VALID,100,VALID,-0.0169808,VALID,18.3161,VALID,352,VALID,0.514863,
2005-10-03, 03:41:00,VALID,917.458,VALID,0,VALID,100,VALID,-0.0339617,VALID,18.3004,VALID,13,VALID,0.387386,
2005-10-03, 03:42:00,VALID,917.47,VALID,0,VALID,100,VALID,0,VALID,18.3193,VALID,6,VALID,0.505335,
2005-10-03, 03:43:00,VALID,917.469,VALID,0,VALID,100,VALID,-0.0339617,VALID,18.3163,VALID,16,VALID,1.30973,
2005-10-03, 03:44:00,VALID,917.464,VALID,0,VALID,100,VALID,-0.0169808,VALID,18.3423,VALID,11,VALID,1.58984,